Regional Weather Roundup
Issued by NWS

Home | Current Version | Previous Version | Text Only | Print | Product List | Glossary Off
Versions: 1 2 3 4 5 6 7 8 9 10 11 12 13 14 15 16 17 18 19 20 21 22 23 24 25 26 27 28 29 30 31 32 33 34 35 36 37 38 39 40 41 42 43 44 45 46 47 48 49 50

000
ASUS43 KMKX 261700
RWRWI

WISCONSIN REGIONAL WEATHER ROUNDUP
NATIONAL WEATHER SERVICE MILWAUKEE/SULLIVAN WI
1200 PM CDT THU MAY 26 2016

NOTE: "FAIR" INDICATES FEW OR NO CLOUDS BELOW 12,000 FEET WITH NO
SIGNIFICANT WEATHER AND/OR OBSTRUCTIONS TO VISIBILITY.

WIZ001-002-006>008-014>016-023>028-261800-
NORTHWEST WISCONSIN

CITY           SKY/WX    TMP DP  RH WIND       PRES   REMARKS
SUPERIOR ARPT  CLOUDY    48  47  99 NE6       29.83R FOG
ASHLAND        CLOUDY    52  52 100 E5        29.82S FOG
HAYWARD        CLOUDY    69  60  73 SW7       29.79F
SIREN          SUNNY     73  57  56 SW10      29.79S
CUMBERLAND     SUNNY     70  55  60 SW10      29.81S
RICE LAKE      SUNNY     71  58  62 S6        29.82S
CHETEK         SUNNY     71  61  71 SW3       29.80F
LADYSMITH      MOSUNNY   70  62  76 S5        29.83S
EAU CLAIRE     NOT AVBL
MENOMONIE      SUNNY     74  66  75 SW8       29.82R
NEW RICHMOND   SUNNY     72  57  58 CALM      29.80F
OSCEOLA        SUNNY     73  58  59 SW5       29.82F
$$

WIZ003>005-009-010-017-018-261800-
NORTH CENTRAL WISCONSIN

CITY           SKY/WX    TMP DP  RH WIND       PRES   REMARKS
MANITOWISH WTR NOT AVBL
ARBOR VITAE    RAIN      63  61  94 NW5       29.82F
WOODRUFF       RAIN      63  61  94 NW5       29.82F
RHINELANDER    LGT RAIN  63  59  87 CALM      29.83R
EAGLE RIVER    RAIN      63  61  94 NW3       29.83R
LAND O LAKES   RAIN      62  60  93 W9        29.84S
PHILLIPS       PTSUNNY   64  61  91 SW3       29.81F
TOMAHAWK       CLOUDY    62  60  92 W7        29.80F
MEDFORD        MOSUNNY   66  62  87 SW12      29.82R
MERRILL        CLOUDY    64  62  93 CALM      29.81R
$$

WIZ029-030-035-036-043>047-261800-
CENTRAL WISCONSIN

CITY           SKY/WX    TMP DP  RH WIND       PRES   REMARKS
WAUSAU         PTSUNNY   70  32  24 SW6       29.81R
MOSINEE        PTSUNNY   68  64  88 S10       29.84R
MARSHFIELD     MOSUNNY   72  61  68 W14       29.83R
STEVENS POINT  PTSUNNY   69  61  75 SW12      29.83S
WAUPACA        CLOUDY    68  67  96 SW7       29.84R
WAUTOMA        CLOUDY    73  65  75 SW16      29.84F
WISC RAPIDS    MOSUNNY   74  61  63 SW13G18   29.85S
CAMP DOUGLAS   NOT AVBL
$$

WIZ011>013-019>022-031-037>040-048>050-261800-
NORTHEAST WISCONSIN

CITY           SKY/WX    TMP DP  RH WIND       PRES   REMARKS
ANTIGO         CLOUDY    65  61  87 W5        29.84R
SHAWANO        MOSUNNY   73  64  73 SE6       29.79S
OCONTO         PTSUNNY  N/A N/A N/A E5        29.79F
STURGEON BAY   NOT AVBL
GREEN BAY      SUNNY     77  65  66 S17       29.78F
MANITOWOC      NOT AVBL
APPLETON       PTSUNNY   73  63  68 SW12G20   29.82R
CLINTONVILLE   CLOUDY    70  63  78 SW9G17    29.82R
OSHKOSH        SUNNY     77  65  66 SW13G23   29.82R
$$

WIZ032>034-041-042-053>061-261800-
SOUTHWEST WISCONSIN

CITY           SKY/WX    TMP DP  RH WIND       PRES   REMARKS
LA CROSSE      SUNNY     75  59  57 W12       29.85S
SPARTA         PTSUNNY   73  61  66 W9        29.87R
VIROQUA        MOSUNNY   71  61  69 SW9       29.90R
BOSCOBEL       SUNNY     79  61  53 SW12      29.87F HX  80
PRAIRIE DU CHI MOSUNNY   75  58  55 S8        29.88F
PLATTEVILLE    SUNNY     78  57  48 S16       29.90S
$$

WIZ056-057-062-063-064-067-068-261800-
SOUTH CENTRAL WISCONSIN

CITY           SKY/WX    TMP DP  RH WIND       PRES   REMARKS
REEDSBURG      MOSUNNY   74  63  68 SW10G16   29.87S
BARABOO/DELLS  MOSUNNY   74  62  65 SW14      29.87R
LONE ROCK      NOT AVBL
MINERAL POINT  SUNNY     77  59  53 SW12G17   29.90R
MADISON        PTSUNNY   75  62  64 SW9       29.87S
MIDDLETON      SUNNY     76  62  62 SW13      29.88S
WATERTOWN      CLOUDY    74  66  75 S13       29.86F
MONROE         CLOUDY    73  59  60 SW13      29.90F
JANESVILLE     MOSUNNY   77  63  61 SW8       29.89
$$

WIZ051-052-058>065-066-070>072-261800-
SOUTHEAST WISCONSIN

CITY           SKY/WX    TMP DP  RH WIND       PRES   REMARKS
MILWAUKEE      PTSUNNY   75  64  68 SW15      29.87F
WAUKESHA       SUNNY     72  64  78 S9G17     29.88F
MILWAUKEE/TIMM NOT AVBL
RACINE         MOSUNNY   77  65  66 S10       29.90F
BURLINGTON     CLOUDY    73  65  76 S3        29.89S
KENOSHA        MOSUNNY   78  68  71 S13       29.90S HX  80
FOND DU LAC    SUNNY     77  65  66 SW15G22   29.82S
SHEBOYGAN      MOSUNNY   76  66  71 S14       29.83F
WEST BEND      MOSUNNY   73  61  64 S13G18    29.85S
JUNEAU         MOSUNNY   73  65  75 S13       29.87R
$$

LSZ147-162-261800-
LAKE SUPERIOR

STATION/POSITION TIME  TEMP    WIND        PRES    WAVE
                       AIR SEA DIR/SP/G            HT/PER
                 (UTC) (F)     (DEG/KT/KT) (MB)    (FT/S)
W MID LAKE BUOY  1550   41 38   30/  6/  8 1010.2R   1/ 3
DEVILS ISLAND    1600   44      70/ 11/ 14 1009.8F
SAXON HARBOR     1620   46     340/  5/ 11 1009.8R
$$

LMZ867-665-643>646-261800-
LAKE MICHIGAN

STATION/POSITION TIME  TEMP    WIND        PRES    WAVE
                       AIR SEA DIR/SP/G            HT/PER
                 (UTC) (F)     (DEG/KT/KT) (MB)    (FT/S)
CHAMBERS ISLAND  1600   63     180/  4/  9 1010.8S
N MID LAKE BUOY  1550   48 45  180/ 12/ 14 1010.4F   1/ 3
NORTHPORT PIER   1600   62     170/  3/  9 1010.2F
SISTER BAY       1619   68     170/  9/ 11   N/A
ALGOMA LAKESHORE 1617             CALM       N/A
KEWAUNEE LAKESHO 1600   51      40/  3/  5 1009.5F
SHEBOYGAN LAKESH 1600   62     180/ 15/ 16 1010.6F
PORT WASHINGTON  1600   63     200/  4/  9 1011.9
S MID LAKE BUOY  1550   53 49  170/ 12/ 12 1012.9S   1/ 3
KENOSHA   LAKESH 1600   62     160/  9/ 11 1012.5S
$$

TC  - TEMPERATURE IN CELSIUS
VSB - VISIBILITY IN STATUTE MILES
WCI - WIND CHILL INDEX
HX  - HEAT INDEX





USA.gov is the U.S. government's official web portal to all federal, state and local government web resources and services.